Date,TemperatureHighF,TemperatureAvgF,TemperatureLowF,DewpointHighF,DewpointAvgF,DewpointLowF,HumidityHigh,HumidityAvg,HumidityLow,PressureMaxIn,PressureMinIn,WindSpeedMaxMPH,WindSpeedAvgMPH,GustSpeedMaxMPH,PrecipitationSumIn
2013-3-1,49,40,28,33,29,26,94,68,46,29.88,29.81,11,1,12,0.00
2013-3-2,49,38,28,31,26,20,93,64,42,29.89,29.77,10,1,11,0.00
2013-3-3,46,35,26,24,21,18,78,56,38,29.95,29.81,11,1,13,0.00
2013-3-4,51,36,23,25,19,15,82,53,24,30.09,29.95,12,1,14,0.00
2013-3-5,49,43,35,45,36,24,97,79,46,30.05,29.52,8,1,13,0.31
2013-3-6,48,43,38,47,33,27,97,70,51,29.99,29.47,20,3,20,0.00
2013-3-7,52,42,33,32,30,26,83,62,45,30.20,29.98,11,1,15,0.00
2013-3-8,56,44,31,29,26,24,81,52,31,30.25,30.11,15,2,16,0.00
2013-3-9,63,46,30,32,29,26,86,55,27,30.31,30.19,9,1,10,0.00
2013-3-10,68,50,31,35,28,22,93,52,18,30.29,30.17,7,1,7,0.00
2013-3-11,70,57,39,55,46,25,88,66,35,30.20,29.89,11,2,13,0.00
2013-3-12,71,62,51,62,54,33,96,76,48,29.89,29.70,14,2,18,0.36
2013-3-13,58,47,34,35,28,20,89,50,28,30.10,29.89,14,2,14,0.00
2013-3-14,54,40,30,26,20,18,68,46,27,30.22,30.06,11,1,12,0.00
2013-3-15,63,49,26,36,30,23,91,51,31,30.15,29.86,9,2,10,0.00
2013-3-16,79,64,50,51,45,36,70,52,35,29.86,29.60,10,2,15,0.00
2013-3-17,64,53,42,53,46,38,93,78,61,30.12,29.77,15,3,19,0.00
2013-3-18,44,41,38,42,39,37,97,94,90,30.16,29.81,9,2,10,0.41
2013-3-19,68,53,41,48,35,14,97,61,20,29.97,29.77,12,1,14,0.01
2013-3-20,56,48,40,26,17,11,57,30,20,30.08,29.73,7,1,8,0.00
2013-3-21,46,39,31,32,20,12,80,48,28,29.94,29.68,19,2,19,0.00
2013-3-22,54,39,23,26,16,12,75,43,23,30.05,29.92,12,1,13,0.00
2013-3-23,56,46,38,33,27,21,75,51,33,30.01,29.86,5,0,6,0.00
2013-3-24,43,39,36,38,36,30,95,87,67,29.89,29.53,12,2,13,0.68
2013-3-25,49,41,36,38,31,24,96,71,41,29.78,29.52,17,2,17,0.00
2013-3-26,49,42,32,31,28,25,81,57,44,30.07,29.78,11,1,13,0.00
2013-3-27,53,42,32,29,26,22,80,55,31,30.18,30.07,15,2,18,0.00
2013-3-28,57,43,28,29,26,24,88,53,29,30.25,30.10,12,1,13,0.00
2013-3-29,61,45,28,33,28,25,91,56,26,30.29,30.13,12,1,12,0.00
2013-3-30,69,54,40,45,38,28,82,57,29,30.20,30.03,7,1,8,0.00
2013-3-31,70,57,48,60,52,43,97,83,63,30.05,29.76,10,1,11,0.48